Bandar Judi Terpercaya
Agen Togel SGP
Agen Judi Togel Online Indonesia
Judi Togel Online
LIVEPOKER188 | IDNPLAY POKER | Capsa Susun | Domino QQ | Bandar Ceme | Super 10 | Omaha | Poker Online

Jackpot

Texas Poker Multi Jackpot System

Kini Telah hadir Jackpot SUPER ROYAL FLUSH

Kini Telah hadir Jackpot 2000 (khusus table VIP keatas).

Ikutilah global jackpot yang tersedia di system kami, dengan system jackpot terbaru dan pertama di indonesia, anda dapat membeli jackpot dengan harga 100 rupiah saja dan menangkan hadiahnya hingga puluhan juta rupiah.

Jackpot bukanlah suatu keharusan untuk dibeli, namun kami memberikan suatu fitur tambahan untuk member tercinta dari www.sambelkecap.com.

Terdapat tiga pilihan harga jackpot yang bisa anda beli yaitu :100,500,1000 dan 2000(khusus table VIP Keatas) rupiah.

Hadiah dari Multi jackpot system www.sambelkecap.com

  1. full house x 10 harga jackpot yang anda beli.
      (contoh:anda membeli 1000 maka:1000 X10 = 10.000)
  2. four of kind x 250 harga jackpot yang anda beli
      (contoh:anda membeli 1000 maka:1000 X250 = 250.000)
  3. Straight flush x 1200
      (contoh:anda membeli 1000 maka:1000 X1200 = 1.200.000)
  4. Royal flush x 10000 harga jackpot yang anda beli
      (contoh:anda membeli 1000 maka:1000 X10000 = 10.000.000)
  5. SUPER ROYAL FLUSH x 30000 harga jackpot yang anda beli
      (contoh:anda membeli 1000 maka:1000 X30000 = 30.000.000)

Kondisi kartu

  1. full house adalah kondisi kartu dimana kartu anda dan kartu tengah dengan total 7 kartu bisa mendapatkan nilai 5 kartu dengan kombinasi 1 tris(three of kind) dan 1 pair, contoh 3 kartu 10 dan 2 kartu 5
  2. Four of kind adalah kondisi kartu dimana kartu anda dan kartu tengah dengan total 7 kartu bisa mendapatkan nilai 5 kartu dengan kombinasi 4 kartu yang sama jumlah dan 1 kartu apapun juga contoh anda mendapatkan 4 buah kartu angka 3 dan 1 kartu apapun.
  3. Staright flush adalah kondisi kartu dimana kartu anda dan kartu tengah dengan total 7 kartu bisa mendapatkan nilai 5 kartu dengan kombinasi seri / staright dengan kembang yang sama contoh : urutan kartu dari angka 5, 6, 7, 8 , 9 10 dengan kembang yg sama misalnya as hati
  4. Royal flush adalah kondisi kartu dimana kartu anda dan kartu tengah dengan total 7 kartu bisa mendapatkan nilai 5 kartu dengan kombinasi seri / staright dengan kembang yang sama tetapi kartu tersebut haruslah dimulai dari 10. contoh 10, Queen, Jack, King dan aces dengan kembang yang sama
  5. Super Royal flush adalah kondisi kartu dimana Kedua kartu anda digabung dengan 3 kartu pertama meja haruslah royal flush. contoh kartu anda 10,Queen kembang sama dan 3 kartu pertama meja adalah Jack, King dan aces dengan kembang yang sama

Demikian adalah penjelasan dari Multi Jackpot www.sambelkecap.com terima kasih dan selamat bermain salam hoki dari kami

Texas Poker Jackpot Winner

TOP SUPER ROYAL FLUSH
No.TanggalNamaPriceWin
119/08 02:49RD1515Super Royal flush3,000,000
219/08 01:39BIGBRO303Super Royal flush6,000,000
319/08 01:01CE5FB6B6Super Royal flush3,000,000
419/08 00:59TURBO339Super Royal flush6,000,000
518/08 20:44MPUCK00Super Royal flush6,000,000
TOP ROYAL FLUSH
No.TanggalNamaPriceWin
119/08 09:29AHMAD_02Royal flush2,000,000
219/08 08:22SPEKOL01Royal flush10,000,000
319/08 08:16GOBER87Royal flush10,000,000
419/08 08:12BWWTAFRoyal flush2,000,000
519/08 07:48BANTU9999Royal flush5,000,000
TOP STRAIGHT FLUSH
No.TanggalNamaPriceWin
119/08 09:20PENUS25Straight Flush600,000
219/08 09:19INSOMNIA09Straight Flush120,000
319/08 09:19TEMPRAStraight Flush600,000
419/08 09:15DEKAAJAStraight Flush120,000
519/08 09:12FPX393Straight Flush600,000
LATEST JACKPOT
No.TanggalNamaPriceWin
119/08 09:30MEXX25Full House1,000
219/08 09:30DALGUD888Full House1,000
319/08 09:30QC6RUAKHLRFull House2,000
419/08 09:30BOTOR13Full House10,000
519/08 09:30GEGE777Full House2,000
619/08 09:30MBRMTFull House2,000
719/08 09:30KENTANG209Full House5,000
819/08 09:30C17RCSZWPQFour Of A Kind50,000
919/08 09:30A4XWONFull House5,000
1019/08 09:30VEJOMA68Full House20,000
1119/08 09:30AAAABGGL63Full House5,000
1219/08 09:30AHMAD_02Full House2,000
1319/08 09:30LAMPUNGFull House5,000
1419/08 09:30VITAN23Full House5,000
1519/08 09:30AKI4NK67Full House5,000
1619/08 09:30AKODI_3UFull House1,000
1719/08 09:30ALIENIFull House5,000
1819/08 09:30KASJIM007Full House5,000
1919/08 09:30JRIU33Full House1,000
2019/08 09:30GAZTERUZZFour Of A Kind25,000
2119/08 09:30HOKI4514Full House2,000
2219/08 09:30HAT0MYFull House1,000
2319/08 09:30KIDAL007Full House2,000
2419/08 09:30AKTOR82Full House5,000
2519/08 09:30NRRNFull House10,000
2619/08 09:30BEBYQYUFull House10,000
2719/08 09:30FRANKQY9Full House1,000
2819/08 09:30DELVI17Full House2,000
2919/08 09:30TENANG08Full House20,000
3019/08 09:30CHRYS0788Full House1,000
3119/08 09:30SAZUK3_Full House5,000
3219/08 09:30ABESOLOFull House2,000
3319/08 09:30KIKIFADILFour Of A Kind50,000
3419/08 09:30WAWAN14Four Of A Kind50,000
3519/08 09:29P3NG3NAAFull House5,000
3619/08 09:29CRYSTALS01Full House5,000
3719/08 09:29T44SY4Full House2,000
3819/08 09:29E3496C00Full House5,000
3919/08 09:29RTU4318Full House20,000
4019/08 09:29KETEKBUSUKFull House2,000
4119/08 09:29KOCOLAN88Full House10,000
4219/08 09:29ITOK232Full House10,000
4319/08 09:29ATIKARDIFull House5,000
4419/08 09:29ASEM212Full House20,000
4519/08 09:29NDY_009Full House20,000
4619/08 09:29NDND001Four Of A Kind50,000
4719/08 09:29DAPOT03Four Of A Kind125,000
4819/08 09:29IND0PLAY99Full House5,000
4919/08 09:29DB90028937Full House1,000
5019/08 09:29ARKBLSB5WTFull House2,000

Domino Multi Jackpot System

Ikutilah global jackpot yang tersedia di system kami, dengan system jackpot terbaru dan pertama di indonesia, anda dapat membeli jackpot dengan harga 100 rupiah saja dan menangkan hadiahnya hingga puluhan juta rupiah.

Jackpot bukanlah suatu keharusan untuk dibeli, namun kami memberikan suatu fitur tambahan untuk member tercinta dari www.sambelkecap.com.

Terdapat tiga pilihan harga jackpot yang bisa anda beli yaitu :100,500 dan 1000 rupiah.

Hadiah dari Multi jackpot system www.sambelkecap.com

  1. Murni Kecil x 50 harga jackpot yang anda beli.
      (contoh:anda membeli 1000 maka:1000 X 50 = 50.000)
  2. Murni Besar x 50 harga jackpot yang anda beli
      (contoh:anda membeli 1000 maka:1000 X 50 = 50.000)
  3. BALAK x 100 harga jackpot yang anda beli
      (contoh:anda membeli 1000 maka:1000 X 100 = 100.000)
  4. ENAM DEWA x 6666 harga jackpot yang anda beli
      (contoh:anda membeli 1000 maka:1000 X 6666 = 6.666.000)

Demikian adalah penjelasan dari Multi Jackpot www.sambelkecap.com terima kasih dan selamat bermain salam hoki dari kami

Domino Jackpot Winner

TOP ENAM DEWA
No.TanggalNamaPriceWin
119/08 09:13JADALOmurni enam666,600
219/08 06:41GONZALES22murni enam6,666,000
319/08 03:18BUDAKBUImurni enam6,666,000
419/08 02:47ENZ77murni enam666,600
519/08 00:52KINGDN99murni enam3,333,000
TOP BALAK
No.TanggalNamaPriceWin
119/08 09:29SMRR_66balak100,000
219/08 09:28NDASE5678balak10,000
319/08 09:25RAJE212balak10,000
419/08 09:25GONZALES22balak100,000
519/08 09:22SANDHI88balak50,000
LATEST JACKPOT
No.TanggalNamaPriceWin
119/08 09:30CHAN_murni besar25,000
219/08 09:30JPB0S98murni kecil50,000
319/08 09:30RVDBACAN15murni kecil50,000
419/08 09:29SUGIHERI07murni kecil25,000
519/08 09:29SMRR_66balak100,000
619/08 09:29NDASE5678murni kecil5,000
719/08 09:28BLUELINK77murni kecil50,000
819/08 09:28JI3NK94murni kecil25,000
919/08 09:28PALBO98murni kecil5,000
1019/08 09:28NDASE5678balak10,000
1119/08 09:27D4N4133murni kecil25,000
1219/08 09:25RAJE212balak10,000
1319/08 09:25DINAPUSPITmurni kecil50,000
1419/08 09:25XRT2Y5lucky9950,000
1519/08 09:25GONZALES22balak100,000
1619/08 09:24TANTAN12lucky9910,000
1719/08 09:23UTU8999murni besar50,000
1819/08 09:22ALVANImurni kecil5,000
1919/08 09:22CWB6PED3RSmurni kecil25,000
2019/08 09:22SANDHI88balak50,000
2119/08 09:21CB77LUSMASmurni besar50,000
2219/08 09:21PISANG67murni kecil50,000
2319/08 09:21JODOSbalak100,000
2419/08 09:20JETTDARAT1murni kecil50,000
2519/08 09:20DINAPUSPITmurni besar50,000
2619/08 09:19SI_CEPAKmurni besar25,000
2719/08 09:19JUHRI999murni kecil50,000
2819/08 09:18RASMIN1murni kecil50,000
2919/08 09:17TIKTIK999murni besar25,000
3019/08 09:17CITOYmurni kecil50,000
3119/08 09:16JEBOL071murni besar50,000
3219/08 09:15RATTIH99murni besar25,000
3319/08 09:15JODOSlucky9950,000
3419/08 09:15TRIMO922lucky9910,000
3519/08 09:14RAJE212murni besar5,000
3619/08 09:14PROBO27murni besar50,000
3719/08 09:14MAMAT_99murni kecil50,000
3819/08 09:14HOKI82balak100,000
3919/08 09:13BEBEC98murni besar50,000
4019/08 09:13KONTIL76murni kecil50,000
4119/08 09:13JADALOmurni enam666,600
4219/08 09:13GPV123murni kecil50,000
4319/08 09:12TOYEL99murni besar50,000
4419/08 09:12ANGGA10000murni besar25,000
4519/08 09:12AGY45balak10,000
4619/08 09:11TOYEL99murni besar50,000
4719/08 09:11LIONG78910murni kecil5,000
4819/08 09:11SARIMON8balak100,000
4919/08 09:11NOVAN79murni kecil25,000
5019/08 09:11DAFIDCLUBmurni besar25,000

Ceme Multi Jackpot System

Jackpot dilihat dari gabungan kartu pemain dengan kartu bandar. Bandar harus membeli jackpot sebanyak jumlah player yang sedang duduk. Sebagai contoh bila terdapat 3 pemain duduk bermain, dan bandar memutuskan untuk membeli jackpot Rp 1.000, maka pada periode tersebut bandar akan membeli jackpot sebanyak 3xRp1.000 = Rp3.000.

Jackpot bukanlah suatu keharusan untuk dibeli, namun kami memberikan suatu fitur tambahan untuk member tercinta dari www.sambelkecap.com.

Terdapat tiga pilihan harga jackpot yang bisa anda beli yaitu :100,500 dan 1000 rupiah.

Hadiah dari Multi jackpot system www.sambelkecap.com

  1. Murni Kecil x 50 harga jackpot yang anda beli.
      (contoh:anda membeli 1000 maka:1000 X 50 = 50.000)
  2. Murni Besar x 50 harga jackpot yang anda beli
      (contoh:anda membeli 1000 maka:1000 X 50 = 50.000)
  3. BALAK x 200 harga jackpot yang anda beli
      (contoh:anda membeli 1000 maka:1000 X 200 = 200.000)
  4. ENAM DEWA x 6666 harga jackpot yang anda beli
      (contoh:anda membeli 1000 maka:1000 X 6666 = 6.666.000)

Demikian adalah penjelasan dari Multi Jackpot www.sambelkecap.com terima kasih dan selamat bermain salam hoki dari kami

Ceme Jackpot Winner

TOP ENAM DEWA
No.TanggalNamaPriceWin
119/08 09:23DQXSKQ4G30murni enam3,333,000
219/08 09:19CANDI956murni enam6,666,000
319/08 09:19HANTAM222murni enam6,666,000
419/08 09:03HILDAN07murni enam6,666,000
519/08 09:01SHECKER8murni enam6,666,000
TOP BALAK
No.TanggalNamaPriceWin
119/08 09:29THEMASTHERbalak100,000
219/08 09:29SURTI09balak20,000
319/08 09:29ARJUNPEAbalak20,000
419/08 09:29GULSERENbalak20,000
519/08 09:28LEMPOK33balak100,000
LATEST JACKPOT
No.TanggalNamaPriceWin
119/08 09:30C4NTIK93murni besar25,000
219/08 09:30HU1J8UKSMImurni kecil50,000
319/08 09:30MIKSTERXXmurni kecil50,000
419/08 09:30MERUNGAPDOmurni besar5,000
519/08 09:30AMARA88murni kecil50,000
619/08 09:30RIO1003murni kecil50,000
719/08 09:29RANGER1518murni besar50,000
819/08 09:29HARISNORmurni besar50,000
919/08 09:29ARJUNPEAmurni kecil5,000
1019/08 09:29CINTAJEMENmurni kecil25,000
1119/08 09:29SUGANDA86murni kecil25,000
1219/08 09:29KAIKAIJE77murni besar50,000
1319/08 09:29EDU4R12murni kecil50,000
1419/08 09:29THEMASTHERbalak100,000
1519/08 09:29SURTI09balak20,000
1619/08 09:29ARJUNPEAbalak20,000
1719/08 09:29GULSERENbalak20,000
1819/08 09:29ARJUNPEAmurni besar5,000
1919/08 09:29ADENANSORImurni besar50,000
2019/08 09:28REMESANmurni kecil25,000
2119/08 09:28G3ND0Nmurni kecil5,000
2219/08 09:28PROV1987murni besar50,000
2319/08 09:28CEPOT342murni besar50,000
2419/08 09:28HITUTBODASmurni besar5,000
2519/08 09:28LEMPOK33balak100,000
2619/08 09:28PANIROYmurni kecil50,000
2719/08 09:28DF978murni kecil50,000
2819/08 09:28REMESANmurni besar25,000
2919/08 09:28ALDOSANJAYmurni besar25,000
3019/08 09:28JOHNKADAL2balak200,000
3119/08 09:28AKUUU38balak200,000
3219/08 09:28HEMBRAI99balak100,000
3319/08 09:28KLINCI84murni besar5,000
3419/08 09:28SIJHEMBUTmurni kecil50,000
3519/08 09:28BIS899murni kecil25,000
3619/08 09:28BPOKER83balak200,000
3719/08 09:27WAWAN66murni besar50,000
3819/08 09:27UWAVI99murni besar25,000
3919/08 09:27PEJUANG7murni besar50,000
4019/08 09:27SANDHI88murni besar50,000
4119/08 09:27AGGUSS01murni besar50,000
4219/08 09:27D4K074JJJJbalak20,000
4319/08 09:27TAKUR213murni kecil5,000
4419/08 09:27ZLSSTS26murni kecil25,000
4519/08 09:27BOKEKBOSS9murni kecil50,000
4619/08 09:27YOKI897murni kecil50,000
4719/08 09:27JACKORABU3murni kecil50,000
4819/08 09:27DAVIDKEROKmurni kecil50,000
4919/08 09:26NARR99UC99murni kecil50,000
5019/08 09:26ABH_KAMPILmurni kecil25,000